Regional Weather Roundup
Issued by NWS

Home | Current Version | Previous Version | Graphics & Text | Print | Product List | Glossary Off
Versions: 1 2 3 4 5 6 7 8 9 10 11 12 13 14 15 16 17 18 19 20 21 22 23 24 25 26 27 28 29 30 31 32 33 34 35 36 37 38 39 40 41 42 43 44 45 46 47 48 49 50

000
ASUS43 KTOP 260759
RWRKS

WEATHER ROUNDUP FOR KANSAS
NATIONAL WEATHER SERVICE GOODLAND KS
300 AM CDT FRI AUG 26 2016

NOTE:  "FAIR" INDICATES FEW OR NO CLOUDS BELOW 12,000 FEET WITH NO
SIGNIFICANT WEATHER AND/OR OBSTRUCTIONS TO VISIBILITY.

KSZ001>006-013>018-027>032-041>047-260900-
NORTHWEST KANSAS

CITY           SKY/WX    TMP DP  RH WIND       PRES   REMARKS
GOODLAND       FAIR      55  51  86 SE5       30.19F
HAYS           FAIR      63  54  72 NE8       30.13F
HILL CITY      FAIR      59  57  93 E3        30.15F
RUSSELL        FAIR      62  60  93 NE6       30.11F
$$

KSZ061>065-074>080-084>089-260900-
SOUTHWEST KANSAS

CITY           SKY/WX    TMP DP  RH WIND       PRES   REMARKS
DODGE CITY     MOCLDY    64  62  93 NE6       30.14F
ELKHART          N/A     63  57  81 NW3         N/A
GARDEN CITY    FAIR      61  58  90 E7        30.14F
GREAT BEND     CLOUDY    64  55  72 NE6       30.12S
LIBERAL        MOCLDY    66  61  82 SE8       30.15F
$$

KSZ066>073-081>083-090>101-260900-
SOUTHEAST KANSAS

CITY           SKY/WX    TMP DP  RH WIND       PRES   REMARKS
CHANUTE        LGT RAIN  68  66  93 N9        30.10F
COFFEYVILLE    TSTM      71  69  93 N6        30.08S
HUTCHINSON     TSTM      68  65  90 NE6       30.08F
MEDICINE LODGE   N/A     68  67  96 E3        30.10R
NEWTON         LGT RAIN  67  66  97 E8        30.09F
PARSONS        MOCLDY    70  68  93 N5        30.11R
WICHITA INTL   TSTM      72  69  90 SE10      30.08R
WICHITA JABRA  CLOUDY    70  70 100 S8        30.08S
WICHITA MCCONL FAIR      72  68  88 SE6       30.08S
WINFIELD       FAIR      70  68  93 SW6       30.07F
$$

KSZ007>012-019>026-033>040-048>060-102>105-260900-
NORTHEAST KANSAS

CITY           SKY/WX    TMP DP  RH WIND       PRES   REMARKS
CONCORDIA      FAIR      62  59  90 CALM      30.12F
EMPORIA        LGT RAIN  70  69  97 S8        30.10R
LAWRENCE       CLOUDY    69  68  96 N5        30.09R THUNDER FOG
MANHATTAN      CLOUDY    67  62  84 N3        30.10R
OLATHE IND     RAIN      71  70  96 N6        30.10R FOG
OLATHE EXE     RAIN      70  67  90 NW6       30.09S FOG
SALINA         CLOUDY    68  61  78 NE7       30.10F
TOPEKA BILLARD MOCLDY    70  65  84 NE5       30.08F
TOPEKA FORBES  RAIN      70  66  87 NE7       30.08F FOG
$$



USA.gov is the U.S. government's official web portal to all federal, state and local government web resources and services.